Clearwater, FL

7:05 PM EST on February 08, 2016 (GMT -0500)
Saint Petersburg-Clearwater International

Weather History for KPIE - February, 2014

Change the Weather History Date:

Wednesday, February 12, 2014

  Actual Average Record
Temperature  
Mean Temperature 67 °F -  
Max Temperature 75 °F 70 °F 84 °F (1959)
Min Temperature 59 °F 53 °F 34 °F (2012)
Cooling Degree Days 2    
Growing Degree Days 17 (Base 50)    
Moisture  
Dew Point 61 °F    
Average Humidity 91    
Maximum Humidity 100    
Minimum Humidity 66    
Precipitation  
Precipitation 1.12 in - - ()
Sea Level Pressure  
Sea Level Pressure 29.90 in    
Wind  
Wind Speed 10 mph (SSE)    
Max Wind Speed 24 mph    
Max Gust Speed 33 mph    
Visibility 6 miles    
Events Rain , Thunderstorm    
Averages and records for this station are not official NWS values.
T = Trace of Precipitation, MM = Missing Value Source: NWS Daily Summary

Daily Weather History Graph

Daily Weather History Graph

Search for Another Location

Airport or City:

Trip Planner

Search our weather history database for the weather conditions in past years. The results will help you decide how hot, cold, wet, or windy it might be!

Date:

Astronomy

Feb. 12, 2014 Rise Set
Actual Time 7:10 AM EST 6:19 PM EST
Civil Twilight 6:46 AM EST 6:43 PM EST
Nautical Twilight 6:18 AM EST 7:11 PM EST
Astronomical Twilight 5:51 AM EST 7:38 PM EST
Moon 4:35 PM EST (2/12) 5:22 AM EST (2/12)
Length of Visible Light 11h 57m
Length of Day
11h 09m
Waxing Gibbous, 95% of the Moon is Illuminated
Feb 12
Waxing Gibbous
Feb 14
Full
Feb 22
Last Quarter
Mar 1
New
Mar 8
First Quarter

Hourly Weather History & Observations

Time (EST) Temp. Dew Point Humidity Pressure Visibility Wind Dir Wind Speed Gust Speed Precip Events Conditions
12:53 AM 62.1 °F 55.9 °F 80% 30.04 in 10.0 mi East 6.9 mph - N/A   Clear
1:53 AM 61.0 °F 55.9 °F 83% 30.03 in 10.0 mi East 6.9 mph - N/A   Clear
2:53 AM 61.0 °F 57.0 °F 87% 30.01 in 9.0 mi East 8.1 mph - N/A   Clear
3:53 AM 60.1 °F 57.0 °F 90% 29.99 in 8.0 mi East 5.8 mph - N/A   Clear
4:53 AM 59.0 °F 57.0 °F 93% 29.98 in 7.0 mi ENE 8.1 mph - N/A   Partly Cloudy
5:15 AM 59.0 °F 57.0 °F 93% 29.98 in 5.0 mi ENE 10.4 mph - N/A   Mostly Cloudy
5:53 AM 59.0 °F 57.0 °F 93% 29.98 in 4.0 mi East 8.1 mph - N/A   Overcast
6:53 AM 59.0 °F 57.9 °F 96% 29.99 in 2.0 mi East 9.2 mph - N/A   Overcast
7:44 AM 60.1 °F 57.9 °F 93% 30.00 in 1.5 mi East 6.9 mph - N/A   Overcast
7:53 AM 60.1 °F 59.0 °F 96% 30.00 in 1.2 mi East 6.9 mph - N/A   Overcast
8:53 AM 61.0 °F 60.1 °F 97% 30.01 in 1.0 mi ESE 8.1 mph - N/A   Overcast
9:07 AM 61.0 °F 60.1 °F 97% 30.00 in 0.8 mi ESE 10.4 mph - N/A   Overcast
9:20 AM 62.1 °F 61.0 °F 96% 29.99 in 1.0 mi ESE 8.1 mph - N/A   Overcast
9:40 AM 63.0 °F 61.0 °F 93% 29.99 in 2.5 mi SE 10.4 mph - N/A   Overcast
9:53 AM 63.0 °F 61.0 °F 93% 29.98 in 3.0 mi SE 11.5 mph - N/A   Overcast
10:14 AM 64.9 °F 61.0 °F 87% 29.97 in 7.0 mi SE 13.8 mph - N/A   Overcast
10:45 AM 68.0 °F 60.1 °F 76% 29.96 in 10.0 mi SE 12.7 mph - N/A   Scattered Clouds
10:53 AM 68.0 °F 60.1 °F 76% 29.96 in 10.0 mi SSE 12.7 mph - N/A   Scattered Clouds
11:53 AM 72.0 °F 61.0 °F 68% 29.94 in 10.0 mi SSE 9.2 mph - N/A   Clear
12:53 PM 75.0 °F 63.0 °F 66% 29.88 in 10.0 mi SSE 13.8 mph - N/A   Clear
1:53 PM 73.9 °F 64.9 °F 73% 29.87 in 10.0 mi South 18.4 mph - N/A   Scattered Clouds
2:26 PM 73.0 °F 66.0 °F 79% 29.85 in 10.0 mi South 16.1 mph 24.2 mph N/A   Mostly Cloudy
2:53 PM 72.0 °F 64.9 °F 78% 29.82 in 10.0 mi South 16.1 mph - N/A   Overcast
3:53 PM 72.0 °F 66.0 °F 81% 29.83 in 10.0 mi SSW 19.6 mph 33.4 mph N/A Thunderstorm Mostly Cloudy
3:57 PM 70.0 °F 64.0 °F 81% 29.85 in 10.0 mi West 24.2 mph 32.2 mph N/A Thunderstorm Thunderstorm
4:05 PM 64.0 °F 61.0 °F 90% 29.85 in 2.5 mi West 20.7 mph 32.2 mph 0.02 in Rain , Thunderstorm Thunderstorms and Rain
4:10 PM 63.0 °F 61.0 °F 93% 29.85 in 1.0 mi West 18.4 mph 28.8 mph 0.12 in Rain , Thunderstorm Heavy Thunderstorms and Rain
4:12 PM 63.0 °F 62.1 °F 97% 29.85 in 0.8 mi West 15.0 mph 26.5 mph 0.15 in Rain , Thunderstorm Heavy Rain
4:20 PM 62.1 °F 62.1 °F 100% 29.84 in 0.8 mi NW 16.1 mph - 0.32 in Rain , Thunderstorm Heavy Rain
4:28 PM 62.1 °F 61.0 °F 96% 29.84 in 0.8 mi West 15.0 mph - 0.45 in Rain , Thunderstorm Heavy Thunderstorms and Rain
4:47 PM 60.8 °F 60.8 °F 100% 29.86 in 2.0 mi West 9.2 mph - 0.61 in Rain , Thunderstorm Thunderstorms and Rain
4:53 PM 62.1 °F 62.1 °F 100% 29.87 in 2.0 mi West 9.2 mph - 0.62 in Rain , Thunderstorm Rain
5:53 PM 61.0 °F 61.0 °F 100% 29.86 in 2.5 mi West 5.8 mph - 0.16 in Rain , Thunderstorm Light Rain
5:58 PM 61.0 °F 61.0 °F 100% 29.87 in 3.0 mi West 5.8 mph - 0.02 in Rain , Thunderstorm Rain
6:05 PM 61.0 °F 61.0 °F 100% 29.87 in 3.0 mi WSW 4.6 mph - 0.04 in Rain , Thunderstorm Rain
6:40 PM 61.0 °F - N/A% 29.86 in 3.0 mi West 4.6 mph - 0.20 in Rain , Thunderstorm Rain
6:53 PM 62.1 °F 62.1 °F 100% 29.85 in 4.0 mi SW 4.6 mph - 0.24 in Rain , Thunderstorm Rain
7:05 PM 62.1 °F 62.1 °F 100% 29.84 in 4.0 mi SSW 4.6 mph - 0.04 in Rain , Thunderstorm Rain
7:29 PM 62.1 °F 62.1 °F 100% 29.82 in 7.0 mi SSE 8.1 mph - 0.08 in Rain , Thunderstorm Light Rain
7:53 PM 63.0 °F 63.0 °F 100% 29.81 in 10.0 mi SE 8.1 mph - 0.09 in Rain Light Rain
8:53 PM 63.0 °F 63.0 °F 100% 29.77 in 10.0 mi South 12.7 mph - 0.01 in   Scattered Clouds
9:53 PM 64.0 °F 62.1 °F 93% 29.76 in 10.0 mi South 12.7 mph - N/A   Clear
10:53 PM 64.0 °F 62.1 °F 93% 29.74 in 10.0 mi SSW 15.0 mph - N/A   Clear
11:53 PM 64.0 °F 62.1 °F 93% 29.74 in 10.0 mi SSW 13.8 mph 23.0 mph N/A   Partly Cloudy